{"data":{"norad_id":56130,"epoch":"2026-05-25T03:30:09.141696Z","epoch_age_seconds":65635,"freshness":"FRESH","line1":"1 56130U 23046AQ  26145.14593914  .00000657  00000+0  33413-4 0  9999","line2":"2 56130  43.0046  75.1609 0001267 268.6038  91.4669 15.27576858173898","mean_motion":15.27576858,"eccentricity":0.0001267,"inclination_deg":43.0046,"raan_deg":75.1609,"arg_perigee_deg":268.6038,"mean_anomaly_deg":91.4669,"bstar":3.3413e-5,"rev_number":17389,"period_min":94.266942606432,"perigee_km":482.18919086371,"apogee_km":483.92781780451,"semimajor_km":6861.1955043341,"source":"CELESTRAK","updated_at":"2026-05-25T13:38:17.960474Z"}}